Location: Azat
(46.0765°N, 1.7600°E)
Time: 22:55:29
(UTC+00:00)

Cosmos 1892 - Pass Details

Date: 09 April 2020
Orbit: 503 x 526 km, 82.5° (Epoch: 05 June)

Event Time Altitude Azimuth Distance (km) Brightness Sun altitude
Rises 19:56:48 0° 2° (N) 2,673 6.7 -14.5°
Reaches altitude 10° 19:59:17 10° 17° (NNE) 1,779 5.6 -14.8°
Maximum altitude 20:02:30 24° 72° (ENE) 1,121 4.0 -15.3°
Enters shadow 20:02:57 24° 83° (E) 1,137 4.0 -15.4°
